Weather History for KP69 - January, 2014

Change the Weather History Date:

Saturday, January 18, 2014

  Actual Average Record
Temperature  
Mean Temperature 34 °F -  
Max Temperature 42 °F 37 °F 45 °F (2003)
Min Temperature 26 °F 29 °F 19 °F (2007)
Degree Days  
Heating Degree Days 31    
Moisture  
Dew Point 27 °F    
Average Humidity 87    
Maximum Humidity 96    
Minimum Humidity 65    
Precipitation  
Precipitation 0.00 in - - ()
Sea Level Pressure  
Sea Level Pressure 30.45 in    
Wind  
Wind Speed 2 mph (NNW)    
Max Wind Speed 6 mph    
Max Gust Speed -    
Averages and records for this station are not official NWS values.
T = Trace of Precipitation, MM = Missing Value Source: NWS Daily Summary

Daily Weather History Graph

Daily Weather History Graph

Search for Another Location

Airport or City:

Trip Planner

Search our weather history database for the weather conditions in past years. The results will help you decide how hot, cold, wet, or windy it might be!

Date:

Astronomy

Jan. 18, 2014 Rise Set
Actual Time 8:18 AM MST 5:27 PM MST
Civil Twilight 7:45 AM MST 6:00 PM MST
Nautical Twilight 7:08 AM MST 6:37 PM MST
Astronomical Twilight 6:32 AM MST 7:13 PM MST
Moon 8:25 PM MST (1/18) 9:10 AM MST (1/18)
Length of Visible Light 10h 15m
Length of Day
9h 08m
Waning Gibbous, 94% of the Moon is Illuminated
Jan 18
Waning Gibbous
Jan 23
Last Quarter
Jan 30
New
Feb 6
First Quarter
Feb 14
Full

Hourly Weather History & Observations

Time (MST) Temp. Windchill Dew Point Humidity Pressure Visibility Wind Dir Wind Speed Gust Speed Precip Events Conditions
12:52 AM 27.0 °F - 26.1 °F 96% 30.50 in - Calm Calm - N/A   Unknown
1:52 AM 27.0 °F - 25.0 °F 92% 30.49 in - Calm Calm - N/A   Unknown
2:52 AM 27.0 °F 23.0 °F 25.0 °F 92% 30.51 in - North 3.5 mph - N/A   Unknown
3:52 AM 27.0 °F - 25.0 °F 92% 30.52 in - Calm Calm - N/A   Unknown
4:52 AM 27.0 °F - 25.0 °F 92% 30.52 in - Calm Calm - N/A   Unknown
5:52 AM 26.1 °F - 24.1 °F 92% 30.53 in - Calm Calm - N/A   Unknown
6:52 AM 27.0 °F 21.6 °F 24.1 °F 89% 30.53 in - NNW 4.6 mph - N/A   Unknown
7:52 AM 26.1 °F 21.9 °F 24.1 °F 92% 30.54 in - NW 3.5 mph - N/A   Unknown
8:52 AM 27.0 °F 21.6 °F 24.1 °F 89% 30.54 in - NW 4.6 mph - N/A   Unknown
9:52 AM 27.0 °F 20.5 °F 24.1 °F 89% 30.55 in - NW 5.8 mph - N/A   Unknown
10:52 AM 30.0 °F 24.1 °F 26.1 °F 85% 30.54 in - NNW 5.8 mph - N/A   Unknown
11:52 AM 33.1 °F 27.7 °F 28.0 °F 82% 30.50 in - North 5.8 mph - N/A   Unknown
12:52 PM 39.0 °F 35.7 °F 28.9 °F 67% 30.45 in - NNW 4.6 mph - N/A   Unknown
1:52 PM 42.1 °F 40.2 °F 30.9 °F 65% 30.39 in - North 3.5 mph - N/A   Unknown
2:52 PM 41.0 °F 39.0 °F 30.9 °F 67% 30.38 in - North 3.5 mph - N/A   Unknown
3:52 PM 37.0 °F 33.3 °F 30.9 °F 79% 30.36 in - North 4.6 mph - N/A   Unknown
4:52 PM 34.0 °F - 30.0 °F 85% 30.36 in - Calm Calm - N/A   Unknown
5:52 PM 32.0 °F - 30.0 °F 92% 30.38 in - Calm Calm - N/A   Unknown
6:52 PM 30.0 °F - 28.0 °F 92% 30.39 in - Calm Calm - N/A   Unknown
7:52 PM 30.0 °F - 27.0 °F 88% 30.39 in - Calm Calm - N/A   Unknown
8:52 PM 28.9 °F 25.2 °F 27.0 °F 92% 30.39 in - North 3.5 mph - N/A   Unknown
9:52 PM 28.9 °F 25.2 °F 27.0 °F 92% 30.38 in - North 3.5 mph - N/A   Unknown
10:52 PM 28.0 °F - 26.1 °F 92% 30.37 in - Calm Calm - N/A   Unknown
11:52 PM 27.0 °F - 26.1 °F 96% 30.38 in - Calm Calm - N/A   Unknown